Portada
METAR-TAF:

METAR-TAF

Aeroports :

Kasane, Botswana

latitud: 17-49S, longitud: 025-09E, altitud: 968 m

Observació

L'informe es va fer fa 6 hores i 2 minuts, a les 18:00 UTC
Vent 4 kt del Sud
Temperatura 15°C
Humitat 48%
Pressió 1021 hPa
Visibilitat 10 km o més
sense núvols per sota de 1500 mi sense presència de cumulonimbus.

METAR: FBKE 291800Z 19004KT CAVOK 15/04 Q1021

Hora: 02:02 (00:02 UTC)

Pronòstic

L'informe es va fer fa 12 hores i 2 minuts, a les 12:00 UTC
Pronòstic vàlid del 29 a les 15 UTC al 29 a les 24 UTC
Vent 7 kt del Sud-Est
Visibilitat 10 km o més
sense núvols per sota de 1500 mi sense presència de cumulonimbus.

TAF: FBKE 291200Z 2915/2924 14007KT CAVOK

Observacions i pronòstics meteorològics de més de 4000 aeroports (METAR i TAF).

Les estacions disponibles són els punts grocs i vermells al mapa.

Posi el ratolí al punt desitjat per veure el nom de l'estació.

Feu clic per veure les observacions i els pronòstics meteorològics.

Per canviar el mapa: feu clic els botons verds amb una creu de color negre per apropar; al botó verd amb un guió per allunyar la imatge; o en les fletxes verdes per a mapes adjacents.


METAR-TAF: